Location: Unspecified
(0.0000°N, 0.0000°E)
Time: 01:39:37
(UTC+00:00)

SEEDS - Pass Details

Date: 24 March 2019
Orbit: 585 x 605 km, 97.5° (Epoch: 19 July)

Event Time Altitude Azimuth Distance (km) Brightness Sun altitude
Rises 18:53:05 0° 200° (SSW) 2,858 ? -11.7°
Reaches altitude 10° 18:56:04 10° 222° (SW) 1,952 ? -12.4°
Maximum altitude 18:58:31 15° 258° (WSW) 1,633 ? -13.1°
Drops below altitude 10° 19:00:59 10° 294° (WNW) 1,944 ? -13.7°
Sets 19:03:57 0° 317° (NW) 2,841 ? -14.4°
